Total_Precipitation_Accumulation
2.18 2.19 2.20 2.10 2.11 2.13 2.31 2.48 2.50 2.25 2.00 1.77 1.61 1.43 1.48 1.56 1.83 1.70 1.42 1.43 1.34 1.25 1.22 1.21 1.35 1.59 1.80 1.96 2.17 2.32 2.49 2.63 2.74 2.76 2.63 2.50 2.56 2.72
1.91 1.97 2.00 1.97 2.07 2.09 2.19 2.37 2.39 2.32 2.15 1.85 1.65 1.57 1.63 1.56 1.72 1.57 1.52 1.66 1.48 1.31 1.22 1.18 1.23 1.34 1.42 1.50 1.59 1.63 1.67 1.74 1.91 2.22 2.26 2.12 2.10 2.22
1.57 1.62 1.68 1.68 1.85 1.90 2.01 2.16 2.27 2.25 2.02 1.78 1.64 1.65 1.70 1.72 1.67 1.55 1.50 1.53 1.50 1.38 1.21 1.13 1.16 1.23 1.28 1.39 1.45 1.45 1.45 1.47 1.62 1.90 2.03 1.89 1.81 1.82
1.44 1.47 1.44 1.45 1.58 1.67 1.77 1.87 2.04 2.14 2.05 1.88 1.73 1.62 1.52 1.59 1.73 1.75 1.70 1.62 1.63 1.66 1.51 1.36 1.31 1.24 1.20 1.33 1.44 1.41 1.39 1.45 1.45 1.61 1.71 1.66 1.72 1.77
1.13 1.16 1.18 1.29 1.44 1.49 1.52 1.66 1.84 1.94 2.06 1.96 1.84 1.72 1.56 1.52 1.69 1.66 1.70 1.90 1.79 1.85 1.95 1.77 1.56 1.37 1.24 1.29 1.41 1.41 1.37 1.45 1.38 1.38 1.55 1.57 1.58 1.65
1.02 0.99 0.96 1.01 1.15 1.30 1.39 1.58 1.78 1.97 2.08 2.05 2.00 1.89 1.77 1.65 1.71 1.83 1.87 1.94 1.94 1.75 1.80 1.82 1.80 1.66 1.44 1.32 1.39 1.47 1.51 1.53 1.52 1.51 1.55 1.50 1.49 1.50
0.94 0.98 0.95 0.95 0.98 1.06 1.06 1.27 1.50 1.79 1.96 2.06 2.05 2.03 1.93 1.83 1.71 1.87 1.94 2.04 2.13 2.09 1.99 1.81 1.80 1.64 1.51 1.44 1.43 1.49 1.61 1.64 1.68 1.68 1.56 1.48 1.43 1.45
0.99 0.98 0.94 0.92 1.00 1.00 0.98 1.03 1.21 1.43 1.63 1.74 1.80 1.83 1.86 1.93 2.02 2.01 1.97 2.01 2.08 2.08 1.96 1.99 1.98 1.88 1.64 1.44 1.48 1.55 1.63 1.68 1.71 1.65 1.51 1.41 1.37 1.41
0.98 1.05 1.07 0.96 1.00 1.03 1.09 1.04 1.00 1.08 1.29 1.49 1.57 1.59 1.68 1.75 1.98 2.01 2.01 2.01 1.90 1.92 1.82 1.90 1.86 1.79 1.68 1.63 1.67 1.58 1.63 1.64 1.68 1.65 1.59 1.53 1.45 1.47
0.93 0.98 1.20 1.22 1.11 1.12 1.18 1.24 1.11 0.96 1.02 1.11 1.29 1.45 1.52 1.70 2.00 2.21 2.18 1.95 1.84 1.85 1.76 1.80 1.74 1.65 1.60 1.56 1.66 1.60 1.59 1.57 1.58 1.63 1.58 1.56 1.54 1.52
0.84 0.96 1.08 1.18 1.16 1.17 1.12 1.18 1.20 1.07 1.05 1.14 1.14 1.24 1.42 1.60 1.88 2.14 2.23 2.15 1.95 1.84 1.69 1.64 1.66 1.68 1.71 1.62 1.59 1.66 1.65 1.65 1.64 1.67 1.68 1.65 1.63 1.68
0.73 0.91 1.12 1.08 1.09 1.15 1.13 1.21 1.30 1.14 1.06 1.17 1.16 1.18 1.22 1.47 1.87 2.05 2.16 2.17 2.04 1.98 1.79 1.70 1.69 1.74 1.97 1.89 1.68 1.62 1.62 1.76 1.81 1.76 1.69 1.71 1.77 1.74
0.72 0.82 0.88 0.91 0.93 1.04 1.11 1.13 1.30 1.24 1.23 1.35 1.38 1.32 1.36 1.41 1.56 1.74 1.97 2.13 2.06 1.91 1.78 1.89 1.96 1.86 1.83 1.83 1.78 1.67 1.63 1.60 1.70 1.79 1.76 1.73 1.74 1.69
0.74 0.77 0.75 0.78 0.83 0.88 0.90 0.97 1.18 1.31 1.36 1.49 1.51 1.46 1.41 1.43 1.46 1.51 1.65 1.80 1.82 1.77 1.70 1.67 1.76 1.73 1.63 1.48 1.49 1.58 1.63 1.64 1.64 1.73 1.76 1.97 1.89 1.83
0.73 0.80 0.82 0.84 0.85 0.81 0.83 0.91 1.07 1.25 1.44 1.49 1.40 1.32 1.35 1.40 1.42 1.53 1.61 1.69 1.73 1.69 1.56 1.43 1.45 1.52 1.49 1.38 1.28 1.36 1.54 1.60 1.52 1.56 1.64 1.68 1.75 1.76
0.79 0.83 0.87 0.87 0.83 0.78 0.85 0.96 1.09 1.29 1.41 1.36 1.33 1.23 1.25 1.39 1.45 1.47 1.51 1.51 1.58 1.63 1.49 1.40 1.39 1.43 1.46 1.36 1.31 1.28 1.33 1.45 1.47 1.50 1.59 1.65 1.62 1.57
0.79 0.85 0.89 0.94 0.95 0.98 1.07 1.14 1.12 1.16 1.23 1.17 1.23 1.20 1.20 1.31 1.37 1.35 1.39 1.34 1.29 1.29 1.32 1.28 1.29 1.35 1.36 1.38 1.41 1.32 1.32 1.36 1.35 1.45 1.57 1.65 1.62 1.50
0.87 0.88 0.96 1.05 1.11 1.16 1.22 1.19 1.15 1.13 1.16 1.16 1.21 1.21 1.17 1.21 1.24 1.28 1.34 1.38 1.38 1.29 1.21 1.18 1.15 1.25 1.34 1.42 1.43 1.32 1.34 1.41 1.48 1.51 1.48 1.49 1.49 1.44
0.84 0.90 1.11 1.14 1.11 1.14 1.20 1.21 1.10 1.02 1.03 1.05 1.07 1.09 1.09 1.11 1.16 1.21 1.26 1.32 1.35 1.29 1.24 1.24 1.24 1.30 1.34 1.26 1.19 1.15 1.28 1.38 1.48 1.54 1.47 1.39 1.35 1.33
0.68 0.79 0.96 1.01 1.04 1.08 1.07 1.04 0.99 0.95 0.97 0.97 0.95 0.95 0.98 1.04 1.08 1.13 1.16 1.16 1.21 1.21 1.22 1.24 1.26 1.29 1.34 1.32 1.23 1.08 1.10 1.27 1.39 1.47 1.42 1.38 1.35 1.51
0.68 0.76 0.84 0.91 0.95 0.96 0.96 0.97 0.96 0.97 0.95 0.95 0.95 0.96 0.98 1.01 1.02 1.00 1.05 1.14 1.13 1.09 1.13 1.15 1.19 1.34 1.35 1.39 1.36 1.14 1.04 1.22 1.38 1.38 1.41 1.53 1.51 1.40
0.69 0.70 0.76 0.81 0.86 0.89 0.91 0.93 0.94 0.97 0.96 0.95 0.94 0.95 0.98 1.01 1.01 1.00 1.03 1.06 1.04 1.04 1.03 1.06 1.13 1.27 1.36 1.42 1.33 1.17 1.10 1.14 1.35 1.55 1.52 1.55 1.51 1.44
0.72 0.70 0.72 0.76 0.83 0.91 0.96 0.96 0.94 0.96 0.98 0.97 0.98 1.00 1.02 1.04 1.03 1.03 1.04 1.04 1.02 1.03 1.06 1.10 1.17 1.30 1.35 1.31 1.29 1.22 1.16 1.15 1.20 1.31 1.34 1.42 1.42 1.36